TimeEST,TemperatureF,Dew PointF,Humidity,Sea Level PressureIn,VisibilityMPH,Wind Direction,Wind SpeedMPH,Gust SpeedMPH,PrecipitationIn,Events,Conditions,WindDirDegrees,DateUTC
12:52 AM,46.9,37.9,71,30.13,10.0,NE,9.2,-,N/A,,Partly Cloudy,50,2012-11-21 05:52:00
1:52 AM,46.9,37.0,68,30.14,10.0,ENE,9.2,-,N/A,,Clear,60,2012-11-21 06:52:00
2:52 AM,46.9,36.0,66,30.14,10.0,NE,6.9,-,N/A,,Clear,50,2012-11-21 07:52:00
3:52 AM,46.9,36.0,66,30.14,10.0,NE,5.8,-,N/A,,Clear,50,2012-11-21 08:52:00
4:52 AM,46.9,37.9,71,30.14,10.0,NE,6.9,-,N/A,,Clear,40,2012-11-21 09:52:00
5:52 AM,46.9,37.9,71,30.15,10.0,NE,5.8,-,N/A,,Partly Cloudy,50,2012-11-21 10:52:00
6:52 AM,48.0,37.9,68,30.17,10.0,NE,3.5,-,N/A,,Clear,40,2012-11-21 11:52:00
7:52 AM,48.9,39.9,71,30.18,10.0,Variable,5.8,-,N/A,,Partly Cloudy,0,2012-11-21 12:52:00
8:52 AM,50.0,39.0,66,30.19,10.0,NE,10.4,18.4,N/A,,Partly Cloudy,40,2012-11-21 13:52:00
9:32 AM,51.8,39.2,62,30.19,10.0,NE,10.4,-,N/A,,Mostly Cloudy,50,2012-11-21 14:32:00
9:48 AM,51.8,39.2,62,30.19,10.0,ENE,10.4,18.4,N/A,,Scattered Clouds,60,2012-11-21 14:48:00
9:52 AM,52.0,39.0,61,30.19,10.0,NE,9.2,16.1,N/A,,Scattered Clouds,50,2012-11-21 14:52:00
11:52 AM,52.0,39.9,63,30.19,10.0,NE,9.2,-,N/A,,Partly Cloudy,40,2012-11-21 16:52:00
12:52 PM,52.0,42.1,69,30.18,10.0,NE,8.1,19.6,N/A,,Clear,40,2012-11-21 17:52:00
1:52 PM,53.1,42.1,66,30.16,10.0,NE,9.2,-,N/A,,Clear,40,2012-11-21 18:52:00
2:52 PM,52.0,44.1,74,30.17,10.0,NE,11.5,-,N/A,,Mostly Cloudy,40,2012-11-21 19:52:00
3:00 PM,51.8,44.6,76,30.17,10.0,NE,9.2,17.3,N/A,,Mostly Cloudy,40,2012-11-21 20:00:00
3:52 PM,50.0,44.1,80,30.18,10.0,NNE,6.9,-,N/A,,Mostly Cloudy,30,2012-11-21 20:52:00
4:19 PM,50.0,44.6,82,30.17,10.0,NNE,4.6,-,N/A,,Overcast,20,2012-11-21 21:19:00
4:50 PM,50.0,44.6,82,30.18,10.0,NE,8.1,-,N/A,,Overcast,50,2012-11-21 21:50:00
4:52 PM,50.0,45.0,83,30.19,10.0,NE,6.9,-,N/A,,Overcast,50,2012-11-21 21:52:00
5:12 PM,50.0,44.6,82,30.19,10.0,NE,8.1,-,N/A,,Overcast,50,2012-11-21 22:12:00
5:52 PM,50.0,45.0,83,30.20,10.0,ENE,10.4,-,N/A,,Overcast,60,2012-11-21 22:52:00
6:22 PM,50.0,44.6,82,30.21,10.0,NE,9.2,-,N/A,,Overcast,50,2012-11-21 23:22:00
6:52 PM,50.0,45.0,83,30.22,10.0,NE,9.2,-,N/A,,Overcast,50,2012-11-21 23:52:00
7:52 PM,50.0,43.0,77,30.22,10.0,NE,6.9,-,N/A,,Mostly Cloudy,50,2012-11-22 00:52:00
8:52 PM,50.0,43.0,77,30.23,10.0,NE,8.1,-,N/A,,Mostly Cloudy,50,2012-11-22 01:52:00
9:52 PM,48.9,44.1,83,30.23,10.0,ENE,8.1,-,N/A,,Overcast,60,2012-11-22 02:52:00
10:52 PM,48.9,43.0,80,30.22,10.0,NE,5.8,-,N/A,,Partly Cloudy,50,2012-11-22 03:52:00
11:52 PM,48.9,43.0,80,30.22,10.0,ENE,8.1,-,N/A,,Scattered Clouds,60,2012-11-22 04:52:00